Regional Weather Roundup
Issued by NWS Nashville, TN

Home | Current Version | Previous Version | Text Only | Print | Product List | Glossary On
Versions: 1 2 3 4 5 6 7 8 9 10 11 12 13 14 15 16 17 18 19 20 21 22 23 24 25 26 27 28 29 30 31 32 33 34 35 36 37 38 39 40 41 42 43 44 45 46 47 48 49 50
000
ASUS44 KOHX 012205
RWROHX
MIDDLE TENNESSEE HOURLY WEATHER ROUNDUP
NATIONAL WEATHER SERVICE NASHVILLE TN
500 PM CDT MON SEP 01 2014

NOTE: "FAIR" INDICATES FEW OR NO CLOUDS BELOW 12,000 FEET WITH
NO SIGNIFICANT WEATHER AND/OR OBSTRUCTIONS TO VISIBILITY.

* THESE REPORTS ARE NOT UNDER NWS QUALITY CONTROL AND MAY NOT
  REPORT WEATHER SUCH AS PRECIPITATION AND FOG.


TNZ005>011-023>034-057-059-062>066-078-080-012300
...NORTHERN MIDDLE TENNESSEE...

CITY           SKY/WX    TMP DP  RH WIND       PRES   REMARKS
CLARKSVILLE    PTSUNNY   85  72  65 S13G21    29.94F HX  91
CROSSVILLE     MOSUNNY   84  66  54 VRB6      30.11S
NASHVILLE      PTSUNNY   90  68  48 SW9G16    29.99F HX  94
SMYRNA         MOSUNNY   90  68  48 SW12      30.00F HX  94
SPARTA         SUNNY     90  72  55 SW7       30.04S HX  96
$$
TNZ056-058-060-061-075>077-079-093>097-012300
...SOUTHERN MIDDLE TENNESSEE...

CITY           SKY/WX    TMP DP  RH WIND       PRES   REMARKS
COLUMBIA         N/A     90  70  51 S13       30.00S HX  95
FAYETTEVILLE   SUNNY     88  66  48 SW6       30.05S HX  90
MCMINNVILLE    SUNNY     90  70  51 SW8       30.05S HX  95
SHELBYVILLE    SUNNY     91  68  46 SW10      30.04S HX  95
TULLAHOMA      SUNNY     88  66  48 S10       30.06F HX  90
WINCHESTER     SUNNY     90  70  51 SW9       30.06S HX  95
$$


...KEY TO REMARKS...
VSB - VISIBILITY IN MILES
WCI - WIND CHILL INDEX
HX  - HEAT INDEX



USA.gov is the U.S. government's official web portal to all federal, state and local government web resources and services.